DIPPU EDXH-EDWE

Flight info

Callsign DIPPU
Flight time 0h 19m
Altitude 4500
Route VFR
Aircraft BE38/L-S/S

Departure

Time 2026-05-06 10:39
Airport Helgoland-Düne Airport (EDXH)

Arrival

Time 2026-05-06 10:58
Airport Emden Airport (EDWE)
Time Latitude Longitude Altitude Speed Heading
2026-05-06 10:33 54.18771 7.91628 4 ft 0 kts 49°
2026-05-06 10:36 54.18771 7.91629 4 ft 1 kts 51°
2026-05-06 10:36 54.18791 7.91687 0 ft 10 kts 85°
2026-05-06 10:37 54.18724 7.91653 -1 ft 15 kts 206°
2026-05-06 10:37 54.18616 7.91562 3 ft 20 kts 205°
2026-05-06 10:37 54.18478 7.91450 7 ft 16 kts 199°
2026-05-06 10:37 54.18464 7.91425 7 ft 0 kts
2026-05-06 10:38 54.18465 7.91427 7 ft 0 kts 26°
2026-05-06 10:38 54.18550 7.91503 4 ft 49 kts 27°
2026-05-06 10:38 54.19010 7.91955 96 ft 94 kts 39°
2026-05-06 10:38 54.19116 7.93154 336 ft 124 kts 104°
2026-05-06 10:39 54.18390 7.94161 609 ft 151 kts 160°
2026-05-06 10:39 54.17334 7.93910 864 ft 161 kts 210°
2026-05-06 10:39 54.16666 7.92424 1132 ft 161 kts 257°
2026-05-06 10:39 54.16412 7.90557 1392 ft 163 kts 256°
2026-05-06 10:40 54.15711 7.89049 1659 ft 166 kts 210°
2026-05-06 10:40 54.14683 7.88164 1920 ft 165 kts 199°
2026-05-06 10:40 54.13613 7.87442 2176 ft 165 kts 196°
2026-05-06 10:40 54.12545 7.86748 2432 ft 165 kts 197°
2026-05-06 10:41 54.11480 7.86016 2680 ft 165 kts 199°
2026-05-06 10:41 54.10426 7.85221 2946 ft 166 kts 200°
2026-05-06 10:41 54.09377 7.84417 3210 ft 165 kts 200°
2026-05-06 10:41 54.08328 7.83632 3462 ft 164 kts 199°
2026-05-06 10:42 54.07282 7.82886 3708 ft 163 kts 198°
2026-05-06 10:42 54.06237 7.82162 3975 ft 162 kts 198°
2026-05-06 10:42 54.05201 7.81442 4238 ft 160 kts 198°
2026-05-06 10:42 54.04162 7.80700 4399 ft 165 kts 199°
2026-05-06 10:43 54.03087 7.79914 4477 ft 171 kts 199°
2026-05-06 10:43 54.01980 7.79098 4508 ft 176 kts 199°
2026-05-06 10:43 54.00840 7.78268 4521 ft 180 kts 199°
2026-05-06 10:44 53.98509 7.76612 4521 ft 185 kts 198°
2026-05-06 10:44 53.97314 7.75765 4520 ft 187 kts 198°
2026-05-06 10:44 53.96077 7.74880 4526 ft 198 kts 199°
2026-05-06 10:44 53.94777 7.73947 4524 ft 206 kts 199°
2026-05-06 10:45 53.93437 7.72978 4526 ft 212 kts 199°
2026-05-06 10:45 53.92068 7.71991 4529 ft 215 kts 199°
2026-05-06 10:45 53.90678 7.70998 4524 ft 217 kts 199°
2026-05-06 10:45 53.89280 7.70009 4509 ft 218 kts 199°
2026-05-06 10:46 53.87876 7.69014 4502 ft 219 kts 199°
2026-05-06 10:46 53.86464 7.68005 4513 ft 220 kts 199°
2026-05-06 10:46 53.85053 7.66991 4512 ft 220 kts 199°
2026-05-06 10:46 53.83660 7.65995 4507 ft 220 kts 199°
2026-05-06 10:47 53.82246 7.64994 4510 ft 220 kts 199°
2026-05-06 10:47 53.80829 7.63992 4497 ft 220 kts 199°
2026-05-06 10:47 53.79417 7.62987 4498 ft 220 kts 199°
2026-05-06 10:47 53.78007 7.61979 4506 ft 220 kts 199°
2026-05-06 10:48 53.76596 7.60973 4505 ft 220 kts 199°
2026-05-06 10:48 53.75183 7.59974 4513 ft 220 kts 198°
2026-05-06 10:48 53.73766 7.58972 4494 ft 221 kts 198°
2026-05-06 10:48 53.72345 7.57970 4506 ft 221 kts 198°
2026-05-06 10:49 53.70921 7.56962 4500 ft 221 kts 198°
2026-05-06 10:49 53.69504 7.55955 4497 ft 221 kts 199°
2026-05-06 10:49 53.68089 7.54948 4502 ft 221 kts 200°
2026-05-06 10:49 53.66751 7.53635 4504 ft 223 kts 210°
2026-05-06 10:50 53.65458 7.52170 4497 ft 224 kts 212°
2026-05-06 10:50 53.64177 7.50670 4489 ft 224 kts 212°
2026-05-06 10:50 53.62888 7.49138 4286 ft 235 kts 212°
2026-05-06 10:50 53.61539 7.47523 4044 ft 240 kts 212°
2026-05-06 10:51 53.60178 7.45889 3770 ft 241 kts 213°
2026-05-06 10:51 53.58814 7.44250 3506 ft 241 kts 213°
2026-05-06 10:51 53.57444 7.42612 3250 ft 241 kts 213°
2026-05-06 10:51 53.56077 7.40976 2987 ft 241 kts 212°
2026-05-06 10:52 53.54714 7.39322 2722 ft 242 kts 212°
2026-05-06 10:52 53.53355 7.37675 2459 ft 240 kts 212°
2026-05-06 10:52 53.52009 7.36042 2199 ft 237 kts 213°
2026-05-06 10:52 53.50666 7.34443 1938 ft 235 kts 213°
2026-05-06 10:53 53.49334 7.32891 1685 ft 232 kts 213°
2026-05-06 10:53 53.48007 7.31369 1421 ft 230 kts 213°
2026-05-06 10:53 53.46685 7.29872 1206 ft 228 kts 212°
2026-05-06 10:53 53.45397 7.28413 1100 ft 223 kts 213°
2026-05-06 10:54 53.44142 7.26968 1031 ft 215 kts 213°
2026-05-06 10:54 53.42940 7.25544 1010 ft 209 kts 222°
2026-05-06 10:54 53.42165 7.23545 1011 ft 203 kts 247°
2026-05-06 10:54 53.41618 7.21382 987 ft 200 kts 250°
2026-05-06 10:55 53.41117 7.19267 986 ft 191 kts 251°
2026-05-06 10:55 53.40652 7.17255 979 ft 178 kts 251°
2026-05-06 10:55 53.40200 7.15398 980 ft 168 kts 239°
2026-05-06 10:55 53.39330 7.14272 997 ft 153 kts 189°
2026-05-06 10:56 53.38416 7.14516 1013 ft 122 kts 133°
2026-05-06 10:56 53.38166 7.15629 983 ft 95 kts 80°
2026-05-06 10:56 53.38220 7.16718 825 ft 92 kts 76°
2026-05-06 10:56 53.38339 7.17742 656 ft 88 kts 73°
2026-05-06 10:57 53.38473 7.18808 457 ft 95 kts 71°
2026-05-06 10:57 53.38646 7.19890 272 ft 101 kts 75°
2026-05-06 10:57 53.38817 7.21007 152 ft 95 kts 71°
2026-05-06 10:57 53.38991 7.22008 8 ft 79 kts 71°
2026-05-06 10:58 53.39126 7.22703 3 ft 50 kts 73°
2026-05-06 10:58 53.39172 7.23086 7 ft 16 kts 133°
2026-05-06 10:58 53.39054 7.23082 6 ft 20 kts 186°
2026-05-06 10:58 53.38952 7.22928 3 ft 25 kts 261°
2026-05-06 10:59 53.38940 7.22701 3 ft 14 kts 354°
2026-05-06 10:59 53.38952 7.22743 3 ft 0 kts 78°